Temp
-5 -5 -5 -5 -5 -5 -5 -4 -4 -4 -4 -4 -4 -3 -3 -3 -4 -4 -4 -3 -4 -4 -4 -4 -4 -4 -4 -4 -4 -4 -3 -4 -3 -4 -4 -5 -4 -5 -4 -5 -5 -5 -4 -4 -4
-6 -6 -5 -5 -5 -5 -5 -5 -5 -5 -4 -4 -4 -4 -4 -4 -4 -4 -4 -4 -4 -4 -4 -4 -4 -4 -4 -4 -4 -4 -3 -4 -4 -4 -4 -4 -3 -2 -3 -4 -5 -5 -4 -4 -4
-6 -6 -6 -6 -6 -6 -5 -5 -5 -5 -5 -4 -4 -4 -4 -4 -4 -4 -3 -4 -4 -4 -4 -4 -4 -4 -4 -4 -4 -4 -4 -4 -6 -5 -5 -4 -4 -4 -4 -4 -5 -5 -4 -4 -4
-7 -7 -7 -7 -6 -6 -6 -6 -6 -6 -5 -5 -5 -4 -4 -4 -4 -4 -4 -4 -4 -4 -4 -4 -4 -5 -5 -5 -5 -4 -4 -5 -5 -4 -5 -5 -6 -5 -5 -4 -5 -4 -5 -4 -3
-7 -7 -8 -8 -7 -7 -7 -7 -7 -7 -6 -6 -6 -5 -5 -4 -4 -5 -4 -4 -4 -4 -4 -4 -4 -4 -4 -5 -5 -5 -5 -5 -5 -6 -6 -5 -5 -4 -5 -5 -5 -5 -5 -4 -4
-8 -8 -8 -8 -8 -8 -8 -8 -7 -7 -7 -7 -7 -6 -5 -5 -5 -5 -5 -4 -4 -4 -4 -4 -4 -4 -4 -4 -5 -5 -5 -5 -5 -5 -6 -4 -5 -4 -5 -5 -5 -5 -5 -4 -4
-8 -8 -8 -8 -8 -8 -8 -8 -8 -8 -7 -7 -7 -7 -7 -6 -5 -6 -5 -5 -5 -5 -4 -4 -4 -4 -4 -4 -4 -5 -5 -5 -5 -5 -5 -5 -5 -6 -6 -5 -4 -5 -5 -4 -3
-9 -9 -8 -8 -8 -8 -8 -8 -8 -8 -8 -7 -7 -7 -7 -7 -6 -6 -6 -6 -5 -5 -5 -5 -5 -4 -4 -4 -4 -4 -4 -5 -5 -5 -6 -5 -5 -6 -5 -5 -6 -5 -5 -4 -4
-9 -9 -9 -9 -9 -8 -8 -8 -8 -8 -8 -7 -7 -7 -7 -7 -6 -6 -6 -6 -6 -6 -5 -5 -5 -5 -5 -4 -4 -4 -4 -5 -6 -6 -6 -5 -6 -5 -6 -7 -5 -6 -5 -5 -4
-9 -9 -10 -9 -9 -9 -9 -8 -8 -8 -8 -8 -7 -7 -7 -7 -7 -6 -6 -6 -6 -6 -6 -6 -5 -5 -5 -5 -5 -5 -5 -5 -5 -5 -6 -6 -5 -5 -6 -6 -6 -6 -4 -6 -5
-10 -10 -10 -10 -10 -10 -9 -9 -9 -8 -8 -8 -8 -7 -7 -7 -7 -7 -6 -6 -6 -6 -6 -6 -6 -5 -6 -6 -6 -5 -5 -5 -5 -7 -6 -5 -6 -6 -7 -6 -5 -6 -6 -5 -5
-10 -11 -11 -11 -11 -10 -10 -10 -9 -9 -9 -8 -8 -8 -7 -7 -7 -7 -7 -7 -6 -6 -6 -6 -6 -6 -6 -6 -6 -6 -5 -5 -5 -6 -8 -8 -7 -6 -6 -7 -6 -5 -5 -5 -4
-10 -11 -11 -11 -11 -11 -11 -10 -10 -9 -10 -9 -9 -8 -8 -8 -7 -7 -7 -7 -7 -7 -6 -6 -6 -7 -7 -6 -6 -6 -6 -6 -5 -6 -8 -9 -9 -8 -7 -7 -7 -7 -6 -4 -4
-10 -11 -11 -11 -11 -11 -11 -11 -11 -10 -10 -9 -9 -9 -9 -8 -8 -7 -7 -7 -7 -7 -7 -7 -7 -7 -7 -6 -6 -6 -7 -6 -7 -6 -6 -8 -8 -8 -8 -8 -6 -7 -6 -5 -4
-11 -11 -12 -12 -12 -12 -12 -12 -11 -11 -11 -10 -9 -10 -9 -9 -8 -8 -8 -8 -8 -7 -7 -7 -7 -7 -7 -7 -7 -6 -7 -7 -7 -7 -7 -7 -8 -7 -8 -8 -8 -6 -6 -5 -4
-12 -12 -12 -12 -12 -12 -12 -12 -12 -12 -12 -11 -11 -11 -11 -10 -10 -10 -9 -9 -8 -8 -8 -7 -7 -7 -7 -7 -7 -7 -7 -7 -7 -6 -6 -6 -7 -5 -5 -7 -8 -6 -6 -5 -4
-13 -13 -13 -13 -13 -13 -13 -13 -14 -15 -15 -13 -12 -12 -12 -12 -11 -11 -11 -10 -10 -10 -9 -9 -9 -9 -8 -7 -7 -7 -7 -7 -7 -6 -5 -5 -7 -6 -6 -6 -7 -6 -5 -5 -5
-15 -15 -15 -14 -14 -14 -14 -15 -14 -15 -16 -16 -15 -13 -13 -13 -13 -11 -12 -12 -12 -12 -11 -10 -9 -10 -12 -10 -10 -8 -8 -8 -7 -6 -5 -7 -7 -5 -6 -8 -8 -6 -5 -4 -5
-16 -16 -15 -15 -14 -14 -14 -15 -14 -14 -15 -13 -14 -15 -14 -14 -14 -14 -13 -12 -13 -13 -11 -11 -9 -10 -10 -11 -10 -10 -9 -8 -9 -8 -7 -8 -8 -6 -7 -7 -9 -7 -7 -6 -6
-16 -16 -16 -15 -15 -15 -15 -15 -14 -14 -14 -14 -15 -15 -15 -14 -14 -14 -14 -15 -14 -13 -11 -11 -10 -12 -12 -11 -10 -10 -9 -10 -10 -9 -7 -7 -7 -6 -7 -8 -8 -8 -7 -8 -7
-16 -16 -15 -15 -15 -15 -15 -15 -14 -15 -15 -15 -15 -15 -15 -15 -14 -14 -15 -15 -14 -13 -12 -12 -11 -12 -13 -13 -12 -12 -12 -13 -12 -11 -10 -9 -8 -7 -8 -9 -8 -8 -8 -7 -7
-16 -16 -16 -16 -16 -15 -15 -15 -15 -15 -15 -15 -15 -14 -14 -14 -15 -15 -15 -15 -13 -13 -13 -13 -12 -12 -12 -13 -13 -13 -12 -14 -13 -12 -11 -10 -6 -8 -9 -9 -9 -8 -8 -8 -8
-15 -15 -15 -15 -15 -15 -15 -15 -15 -14 -15 -14 -14 -14 -14 -14 -15 -15 -15 -16 -15 -14 -13 -14 -13 -13 -13 -13 -14 -14 -13 -14 -14 -13 -12 -11 -8 -9 -9 -9 -8 -8 -8 -8 -8
-15 -15 -15 -15 -15 -15 -15 -15 -15 -15 -15 -16 -15 -15 -15 -15 -15 -15 -15 -15 -15 -15 -15 -15 -15 -14 -13 -13 -15 -15 -14 -14 -15 -13 -13 -12 -11 -9 -9 -10 -10 -8 -9 -9 -9
-15 -15 -15 -15 -15 -15 -16 -16 -16 -16 -16 -16 -16 -15 -15 -15 -15 -15 -15 -15 -16 -16 -16 -16 -17 -17 -16 -14 -17 -15 -15 -14 -14 -14 -14 -13 -12 -11 -10 -11 -11 -10 -9 -10 -10
-16 -16 -15 -16 -16 -16 -16 -16 -16 -16 -16 -16 -16 -16 -15 -15 -16 -15 -15 -16 -16 -16 -16 -17 -17 -18 -18 -17 -18 -17 -15 -15 -14 -12 -13 -13 -12 -11 -10 -11 -11 -10 -10 -10 -10
-16 -16 -16 -16 -16 -16 -16 -16 -15 -15 -16 -16 -16 -16 -15 -15 -16 -15 -16 -16 -17 -16 -17 -18 -19 -20 -19 -20 -20 -18 -17 -16 -15 -13 -13 -13 -13 -14 -10 -11 -11 -11 -10 -10 -10
Height
5861 5860 5860 5859 5859 5859 5859 5859 5859 5860 5860 5861 5861 5862 5864 5865 5867 5869 5870 5873 5875 5877 5878 5881 5882 5883 5885 5886 5886 5888 5890 5890 5892 5891 5893 5893 5892 5892 5896 5899 5900 5901 5903 5903 5904
5855 5855 5855 5854 5854 5854 5854 5854 5855 5855 5856 5857 5858 5859 5860 5862 5864 5865 5867 5869 5871 5873 5875 5877 5879 5881 5883 5884 5885 5886 5888 5890 5891 5891 5890 5891 5893 5874 5883 5899 5902 5899 5904 5904 5904
5850 5849 5849 5849 5848 5849 5849 5848 5849 5850 5851 5853 5854 5855 5857 5859 5862 5859 5863 5865 5868 5870 5872 5874 5877 5879 5881 5882 5883 5884 5885 5887 5889 5888 5892 5892 5891 5892 5894 5899 5903 5901 5904 5903 5904
5845 5843 5842 5842 5842 5843 5843 5843 5843 5844 5846 5847 5849 5850 5852 5855 5859 5857 5860 5862 5864 5866 5869 5871 5873 5876 5877 5880 5881 5884 5884 5885 5886 5888 5890 5892 5890 5882 5893 5895 5900 5903 5903 5903 5904
5840 5838 5837 5836 5836 5836 5837 5837 5838 5839 5840 5841 5843 5845 5847 5850 5854 5853 5855 5857 5860 5862 5865 5867 5870 5872 5874 5876 5878 5881 5883 5884 5887 5887 5889 5893 5891 5891 5892 5897 5900 5903 5902 5903 5903
5833 5833 5831 5830 5830 5830 5830 5831 5832 5833 5834 5836 5837 5839 5842 5845 5848 5848 5850 5853 5856 5858 5861 5864 5866 5868 5870 5873 5876 5877 5879 5882 5884 5889 5891 5887 5891 5889 5894 5898 5898 5900 5901 5903 5902
5823 5823 5824 5823 5823 5823 5824 5824 5825 5826 5828 5830 5831 5833 5836 5840 5841 5843 5846 5848 5851 5854 5857 5859 5861 5864 5866 5869 5872 5874 5876 5879 5883 5886 5889 5889 5888 5888 5898 5898 5897 5898 5902 5902 5902
5813 5812 5813 5814 5815 5815 5816 5817 5818 5819 5821 5823 5825 5827 5830 5833 5836 5838 5841 5843 5846 5848 5852 5854 5857 5860 5863 5865 5867 5871 5874 5878 5882 5884 5886 5886 5884 5888 5894 5896 5900 5899 5899 5903 5903
5804 5803 5803 5803 5804 5806 5807 5808 5810 5812 5814 5815 5819 5820 5823 5826 5830 5832 5835 5838 5841 5843 5846 5849 5852 5856 5859 5861 5865 5869 5873 5876 5878 5881 5882 5884 5882 5890 5889 5891 5897 5899 5899 5902 5904
5795 5795 5794 5794 5794 5796 5798 5799 5800 5803 5805 5808 5811 5815 5817 5819 5823 5826 5829 5833 5836 5838 5840 5844 5847 5850 5854 5858 5863 5864 5868 5872 5876 5879 5879 5881 5880 5880 5886 5887 5887 5893 5899 5900 5900
5786 5785 5784 5784 5785 5786 5788 5791 5793 5796 5796 5800 5803 5805 5809 5814 5816 5819 5822 5826 5829 5832 5835 5839 5843 5847 5850 5853 5857 5859 5861 5863 5868 5875 5877 5879 5877 5881 5882 5886 5881 5886 5899 5898 5898
5776 5775 5775 5775 5776 5776 5778 5781 5783 5787 5789 5791 5794 5797 5801 5804 5808 5811 5815 5820 5823 5826 5830 5834 5839 5842 5845 5848 5851 5853 5857 5861 5865 5869 5875 5876 5877 5879 5883 5884 5886 5890 5896 5899 5898
5767 5766 5766 5767 5767 5769 5769 5771 5774 5777 5781 5783 5785 5788 5793 5797 5798 5804 5807 5810 5815 5819 5823 5827 5833 5835 5839 5843 5846 5849 5852 5857 5861 5863 5864 5873 5873 5874 5881 5885 5886 5889 5893 5895 5896
5760 5758 5758 5758 5760 5760 5762 5763 5765 5769 5771 5775 5778 5780 5786 5787 5790 5797 5798 5803 5807 5811 5816 5820 5825 5828 5832 5836 5840 5844 5847 5851 5855 5857 5859 5866 5867 5871 5877 5882 5885 5884 5888 5896 5895
5753 5750 5750 5750 5751 5752 5754 5755 5757 5760 5762 5766 5771 5772 5776 5780 5783 5787 5790 5794 5798 5802 5806 5812 5815 5819 5824 5830 5833 5838 5840 5844 5847 5850 5853 5857 5859 5866 5872 5875 5879 5878 5884 5890 5892
5744 5742 5742 5743 5743 5745 5746 5748 5751 5754 5755 5758 5761 5765 5769 5770 5773 5780 5782 5786 5789 5793 5797 5804 5806 5811 5816 5820 5825 5829 5833 5836 5840 5842 5841 5855 5854 5862 5865 5874 5877 5877 5883 5887 5894
5735 5735 5735 5736 5737 5738 5740 5742 5745 5748 5753 5754 5753 5759 5762 5765 5767 5771 5774 5778 5781 5785 5787 5790 5796 5803 5808 5812 5816 5821 5826 5829 5832 5835 5842 5850 5849 5856 5865 5868 5871 5875 5878 5885 5886
5731 5731 5731 5732 5734 5735 5738 5741 5742 5743 5745 5746 5746 5755 5758 5758 5760 5764 5768 5770 5773 5775 5778 5782 5790 5793 5798 5803 5809 5813 5816 5821 5824 5832 5840 5841 5838 5854 5863 5862 5861 5868 5871 5876 5881
5730 5730 5731 5731 5732 5734 5736 5736 5735 5736 5738 5742 5748 5749 5752 5753 5756 5756 5759 5763 5766 5765 5770 5773 5778 5780 5786 5786 5792 5803 5804 5818 5816 5822 5826 5829 5834 5847 5854 5863 5861 5863 5862 5868 5871
5729 5730 5731 5730 5730 5731 5731 5732 5735 5738 5740 5741 5743 5745 5748 5746 5748 5749 5751 5751 5754 5757 5759 5765 5773 5777 5779 5782 5786 5790 5803 5804 5806 5810 5814 5820 5828 5840 5849 5855 5859 5860 5860 5864 5866
5729 5729 5729 5728 5728 5729 5729 5729 5731 5734 5734 5736 5738 5739 5741 5744 5743 5744 5744 5742 5744 5751 5754 5757 5762 5774 5775 5777 5781 5782 5787 5791 5797 5800 5803 5811 5819 5835 5842 5843 5845 5855 5857 5858 5861
5730 5729 5728 5727 5728 5726 5727 5727 5726 5729 5731 5732 5731 5732 5734 5738 5739 5738 5738 5735 5740 5742 5747 5747 5755 5759 5766 5770 5770 5772 5776 5781 5788 5794 5794 5799 5807 5835 5835 5839 5840 5847 5851 5851 5854
5735 5733 5731 5729 5727 5726 5724 5723 5723 5723 5725 5725 5726 5727 5728 5729 5732 5731 5730 5731 5731 5732 5735 5739 5740 5743 5754 5764 5766 5762 5767 5769 5776 5781 5785 5793 5802 5829 5825 5829 5829 5833 5832 5839 5845
5738 5735 5733 5729 5726 5724 5722 5721 5720 5720 5720 5721 5722 5723 5724 5725 5726 5726 5724 5724 5724 5724 5725 5725 5728 5729 5736 5746 5746 5746 5753 5756 5763 5771 5777 5782 5793 5810 5815 5817 5820 5825 5828 5825 5834
5738 5734 5732 5729 5727 5724 5722 5721 5720 5720 5719 5719 5719 5720 5720 5720 5718 5717 5717 5715 5714 5714 5714 5713 5713 5713 5717 5724 5727 5735 5741 5744 5747 5758 5763 5777 5786 5794 5799 5805 5809 5815 5817 5817 5823
5737 5734 5730 5728 5726 5723 5721 5720 5718 5717 5716 5716 5716 5716 5715 5714 5713 5710 5708 5706 5705 5705 5703 5702 5701 5697 5697 5702 5708 5716 5727 5732 5735 5749 5756 5765 5776 5773 5777 5788 5795 5802 5808 5809 5813
5735 5731 5728 5725 5723 5721 5719 5717 5715 5713 5712 5711 5710 5709 5706 5705 5704 5702 5700 5698 5697 5696 5693 5691 5688 5683 5683 5684 5685 5692 5712 5721 5728 5736 5744 5752 5761 5754 5758 5772 5779 5789 5793 5800 5803
Wind_Speed
20 20 20 19 18 18 17 16 16 15 15 15 13 13 14 14 14 14 15 17 21 19 20 18 18 16 13 11 11 12 11 10 0 7 10 16 1 16 3 5 4 3 4 5 3
20 20 20 21 19 19 19 18 17 17 16 17 16 16 15 14 15 16 17 16 18 20 21 22 21 18 17 15 12 13 7 8 2 7 8 7 8 18 13 5 1 5 11 5 4
20 20 20 20 20 20 19 19 19 19 18 19 18 18 17 16 12 19 18 17 17 18 18 21 22 20 18 16 16 14 12 9 7 7 5 10 9 17 11 5 2 6 7 4 4
21 21 22 20 20 20 19 19 19 19 18 19 20 20 19 18 16 19 15 18 19 18 20 19 19 17 19 17 18 16 14 14 14 10 4 8 7 18 14 6 4 7 7 4 4
24 24 24 22 22 21 20 20 20 19 19 18 18 20 22 21 17 21 20 18 18 20 21 22 22 19 18 17 19 17 17 15 12 8 10 9 9 15 12 5 10 9 7 6 4
29 27 26 26 25 24 23 22 22 22 21 20 19 18 19 21 17 22 21 21 20 19 20 21 21 23 24 21 17 21 22 18 15 12 7 14 13 10 6 6 8 5 7 8 7
33 31 31 30 28 27 26 26 26 26 24 23 23 22 20 16 23 23 20 21 22 22 21 21 24 23 24 25 23 22 19 24 19 15 12 12 18 10 5 14 10 5 8 7 6
35 34 32 32 33 31 30 29 28 28 29 29 27 26 24 23 22 22 19 20 20 21 23 24 22 23 24 25 25 24 20 14 18 18 16 15 24 16 13 2 9 8 8 8 10
36 35 33 31 32 33 34 33 33 31 30 29 29 29 29 27 25 25 24 21 20 20 22 24 24 22 23 24 23 20 18 16 15 17 21 21 23 16 22 15 19 16 11 13 11
37 36 34 33 31 29 31 33 33 33 33 32 30 29 30 30 28 27 27 27 25 24 23 21 21 23 23 22 17 20 18 20 17 18 21 22 23 22 24 21 26 29 16 14 11
33 33 34 33 31 30 29 30 31 30 33 34 32 31 29 27 29 29 29 29 30 30 27 24 23 18 19 20 21 21 26 26 26 18 24 22 23 20 24 20 22 14 11 12 11
34 31 29 30 30 28 29 28 29 29 28 31 31 32 31 31 32 31 30 31 32 32 30 30 25 23 22 21 23 26 24 24 25 23 15 18 22 24 22 19 20 20 10 16 12
30 29 25 26 28 29 27 27 27 27 25 28 27 28 29 29 31 33 33 33 34 33 31 32 31 30 29 27 25 26 27 23 23 27 23 21 22 29 26 23 23 19 20 17 16
25 25 24 23 25 26 27 28 27 26 26 27 26 30 26 30 31 29 34 34 35 36 36 36 34 34 34 33 31 29 27 26 25 30 32 29 30 30 32 30 23 22 24 22 20
26 23 21 23 23 23 25 27 27 25 22 27 25 26 27 29 31 32 32 35 34 35 38 37 39 40 38 37 37 34 34 32 33 33 34 37 38 35 33 32 26 31 37 31 23
25 23 21 20 22 24 21 22 23 18 17 23 22 20 21 27 29 27 29 33 34 35 37 36 41 43 43 42 41 42 40 38 37 39 43 32 40 36 35 27 30 33 25 38 23
18 18 18 16 15 15 14 13 10 9 8 19 24 21 19 21 24 23 25 27 29 31 34 36 34 34 39 46 47 46 44 45 43 43 38 33 42 36 33 31 25 26 30 20 23
9 4 3 3 5 7 8 10 12 18 21 21 25 10 16 22 24 25 19 21 24 26 30 37 38 32 28 36 39 46 49 47 48 44 39 38 41 30 29 30 31 30 29 26 22
5 3 2 0 2 6 9 15 22 23 27 24 10 14 16 19 21 23 24 22 21 30 37 36 38 37 39 40 45 42 47 45 49 49 50 46 35 34 30 29 34 31 33 30 28
5 3 3 3 2 5 8 14 14 14 20 22 21 22 18 23 24 27 26 24 29 33 40 42 42 34 35 37 42 38 43 44 46 49 54 52 45 38 19 12 24 37 35 32 29
9 5 6 7 6 6 10 14 14 15 19 22 21 20 18 19 23 25 24 29 32 33 36 38 41 33 34 37 36 32 33 41 45 48 50 51 53 40 20 16 21 32 36 39 36
12 7 3 2 3 8 7 9 12 11 14 16 19 20 21 20 24 28 31 36 36 36 35 39 38 40 40 44 46 46 44 34 43 47 50 53 61 27 22 28 25 14 24 29 36
13 12 13 9 7 6 8 9 12 14 14 17 19 19 19 17 13 15 17 18 27 35 44 43 46 45 41 45 47 50 50 42 36 49 53 51 59 35 25 19 23 30 38 30 38
8 7 12 14 9 10 9 6 3 2 3 5 6 7 6 9 10 13 18 22 25 26 26 32 34 46 52 44 55 53 56 51 43 46 54 49 47 40 32 21 19 33 37 38 33
10 13 16 14 9 8 8 7 6 5 5 6 7 9 10 7 12 19 21 24 25 26 26 30 38 43 45 56 47 63 58 60 56 50 47 53 37 49 47 38 31 37 46 43 36
14 16 22 14 10 9 10 11 12 10 11 11 12 14 16 18 24 30 27 25 26 26 26 32 34 41 47 47 51 50 64 65 66 58 51 49 49 57 63 49 45 41 46 42 42
19 18 19 12 13 11 13 13 13 13 14 17 21 24 27 30 29 23 24 23 24 27 31 30 27 33 32 33 41 60 56 62 67 65 57 55 60 51 69 61 52 53 50 48 49
Wind_Direction
286 282 279 278 277 276 273 270 265 261 258 256 250 242 237 233 231 229 219 217 222 216 216 213 210 212 214 220 223 224 222 239 228 294 309 315 25 146 240 190 196 181 201 236 231
284 281 277 275 271 269 269 267 263 260 255 254 249 248 242 235 231 236 230 219 220 223 222 219 220 219 214 221 228 235 227 244 155 255 309 18 295 175 154 255 320 289 198 225 203
284 281 278 273 270 265 263 263 261 257 255 250 249 245 243 241 231 233 232 228 222 221 221 227 230 230 226 223 226 230 222 219 213 102 12 344 42 173 168 208 111 179 210 206 221
283 278 275 272 269 268 262 259 258 258 255 250 245 245 243 239 231 239 234 229 228 221 221 220 221 226 224 226 228 225 225 232 241 302 329 298 323 3 188 182 201 205 232 211 240
282 278 274 269 268 265 262 258 255 254 256 253 248 241 240 238 229 237 235 234 227 227 222 221 223 220 224 220 224 222 225 232 242 270 282 311 315 316 295 37 199 205 198 221 223
282 276 271 267 263 261 259 256 253 253 252 252 251 247 238 238 218 236 236 234 231 231 227 224 222 226 227 228 228 222 225 228 235 240 230 270 271 299 274 213 193 189 193 214 218
276 271 269 265 261 259 257 255 252 249 247 248 248 248 246 233 223 236 233 234 231 230 230 227 225 224 227 229 227 231 234 233 233 235 248 285 273 245 255 231 220 212 212 223 220
278 272 267 264 261 257 256 255 253 251 249 249 248 247 245 240 233 227 228 229 229 228 228 231 229 227 231 228 229 230 231 235 233 232 244 230 260 262 247 323 210 243 243 227 227
282 279 273 267 262 260 257 255 253 251 249 247 248 247 244 241 235 231 228 226 227 230 230 231 232 229 229 232 232 235 231 220 228 228 238 243 256 255 271 266 248 238 224 225 224
289 281 276 272 265 261 257 256 252 251 250 247 244 246 244 242 240 235 231 229 227 227 229 230 232 231 231 233 234 231 224 216 217 228 232 241 249 240 256 269 289 202 206 201 206
288 282 278 274 268 264 260 256 255 253 249 247 244 244 244 240 238 236 234 230 229 229 228 227 229 229 227 227 225 230 224 216 202 213 246 236 249 262 269 272 282 177 208 198 199
288 284 275 269 268 260 258 259 255 251 251 246 245 245 244 240 236 236 235 233 229 230 229 229 229 227 225 223 220 226 232 230 220 207 249 241 262 261 264 274 277 277 216 197 193
295 283 274 266 264 262 254 252 252 250 246 245 243 243 243 242 239 233 234 233 232 231 230 231 229 227 226 225 225 228 231 231 224 210 202 220 245 262 268 266 273 240 235 208 177
293 282 272 267 262 258 259 252 248 247 249 241 243 245 239 239 239 233 234 234 234 235 234 232 233 232 230 227 227 224 232 223 227 230 221 198 222 245 262 269 255 257 216 226 187
289 278 269 266 261 260 257 254 255 248 254 245 238 244 239 235 236 232 233 233 232 232 230 229 228 234 233 231 229 228 230 223 224 227 237 212 218 225 235 248 262 254 225 217 202
279 276 272 281 262 258 257 252 252 255 245 245 248 237 235 233 234 229 233 233 233 233 234 235 235 230 229 233 233 231 230 232 229 231 232 230 233 242 241 246 249 257 250 225 218
290 279 277 274 263 249 248 223 176 135 245 245 240 230 230 232 233 225 225 229 232 231 231 227 225 231 237 232 232 236 235 234 235 237 245 239 230 247 251 256 258 262 259 246 244
292 264 242 220 210 194 180 166 186 152 190 242 244 256 235 241 248 235 232 241 236 236 230 234 228 222 229 235 239 241 237 236 238 239 245 244 245 248 247 248 259 264 263 246 217
289 242 216 22 249 219 206 191 194 191 210 232 272 263 232 234 244 262 258 249 247 246 238 230 225 225 223 219 228 232 235 238 242 240 239 240 240 232 239 232 240 250 262 259 257
301 238 263 292 284 235 212 215 227 231 233 242 243 243 239 246 243 247 250 251 244 239 240 237 234 229 228 229 234 237 234 233 234 239 238 239 238 236 227 247 243 243 246 250 250
357 255 281 302 272 239 226 236 245 226 239 238 245 252 246 245 260 262 254 256 252 251 251 249 245 225 230 238 236 229 231 219 227 230 239 242 237 233 206 246 223 233 263 265 259
31 35 42 31 269 253 235 224 247 238 222 243 251 252 254 253 257 263 263 263 265 265 258 260 253 248 231 226 238 240 236 228 227 225 232 236 236 221 203 227 262 210 260 264 262
45 49 36 18 350 334 291 280 273 267 264 257 259 260 263 260 253 256 262 271 271 269 265 262 256 249 240 231 228 235 237 224 215 218 225 235 237 195 207 209 219 199 219 228 244
34 6 11 1 356 6 6 360 3 335 283 262 259 233 234 266 279 280 274 276 278 281 281 283 274 259 245 229 221 216 229 223 212 219 222 219 228 201 203 188 212 209 214 227 230
345 349 347 345 351 358 353 345 339 316 287 277 267 264 284 267 299 317 305 281 281 277 281 296 279 268 255 237 231 226 221 227 226 216 221 218 210 206 205 209 183 202 212 217 221
332 326 318 307 326 332 336 342 324 305 287 279 275 275 279 283 295 303 302 285 278 277 283 286 285 272 262 248 228 222 222 223 230 232 228 221 204 206 206 205 199 190 204 213 215
332 334 333 318 317 324 336 333 329 331 308 298 291 290 288 290 290 287 288 281 276 278 280 285 287 273 256 255 241 219 214 218 228 230 225 222 214 218 208 202 211 196 198 200 205